Laurent Verva

Laurent Verva

Statistiques 2026

  • Courses courues : 42
  • Nb de victoires : -
  • Nb de places : 1
  • Écart gagnant : 143
  • Réussite à la gagne : -
  • Réussite à la place : 2%
Musique : 0a 8a 4a 6a 6a 0a 5a 5a Da 2a 9a 6a 5a Da 6a 0a 7a 4a
DateRangCatégorieAlloc.Dist.HippodromeChevalRed. KmSpé.
02/11/18 7 Trot 22 000€ 2 825m Le Croise Laroche Felix du Bourg 1'17"6 Attelé
02/11/18 3 Trot 20 000€ 2 825m Le Croise Laroche Elisee du Pont 1'16"9 Attelé
02/11/18 5 Trot 17 000€ 2 700m Le Croise Laroche Fire Bird 1'16"3 Attelé
11/11/18 6 Trot 15 000€ 2 000m La Capelle Ganador Del Amor 1'20"3 Attelé
11/11/18 6 Trot 15 000€ 2 700m La Capelle Fiston d'hertals 1'19"1 Attelé
11/11/18 2 Trot 15 000€ 2 700m La Capelle Ethano de Bouteau Attelé
12/11/18 7 Trot 25 000€ 2 700m Le Croise Laroche Ben de Torvic 1'15"4 Attelé
12/11/18 1 Trot 40 000€ 2 800m Le Croise Laroche Eros In Love 1'14"6 Attelé
12/11/18 6 Trot 20 000€ 2 700m Le Croise Laroche Banana Peel 1'16"0 Attelé
12/11/18 2 Trot 13 000€ 2 700m Le Croise Laroche For Ever Mencourt 1'17"8 Attelé
12/11/18 D Trot 13 000€ 2 700m Le Croise Laroche Fleur du Ramierou Attelé
12/11/18 D Trot 14 000€ 2 700m Le Croise Laroche Filou d'Avesnes Attelé
13/11/18 7 Trot 36 000€ 2 200m Vincennes Geisha d'Arbaz 1'18"5 Attelé lire

Une des animatrices, a cédé dans le tournant final.

15/11/18 6 Trot 22 000€ 2 600m Reims Fire Bird 1'17"4 Attelé
15/11/18 0 Trot 19 000€ 2 600m Reims Ercule de Navary Attelé
15/11/18 0 Trot 22 000€ 2 600m Reims Flamme Mencourt Attelé
19/11/18 2 Trot 45 000€ 2 700m Vincennes Diego du Houlet 1'14"6 Attelé lire

Un des animateurs, a très bien tenu sa partie dans la phase finale.

21/11/18 8 Trot 23 000€ 2 850m Mauquenchy Charly d'Ommeel 1'16"9 Attelé
25/11/18 4 Trot 13 000€ 2 600m Reims Farca Sly 1'17"9 Attelé
25/11/18 D Trot 13 000€ 2 600m Reims Flashback Syga Attelé
25/11/18 3 Trot 15 000€ 2 575m Reims Emile de Jal 1'17"1 Attelé
25/11/18 4 Trot 15 000€ 2 575m Reims Esteve le Fol 1'16"7 Attelé
25/11/18 7 Trot 20 000€ 2 575m Reims Bilingue d'Alci 1'15"4 Attelé
26/11/18 0 Trot 60 000€ 2 700m Vincennes Atout du Hainaut Attelé lire

N'a joué aucun rôle utile.

26/11/18 D Trot 30 000€ 2 850m Vincennes Fayette Tilly Attelé lire

Est partie au galop.

27/11/18 4 Trot 21 000€ 2 850m Mauquenchy Flamme Mencourt 1'18"2 Attelé
28/11/18 2 Trot 19 000€ 2 700m Le Croise Laroche Elisee du Pont 1'15"7 Attelé
28/11/18 2 Trot 19 000€ 2 700m Le Croise Laroche Eole Chatho 1'17"1 Attelé
28/11/18 1 Trot 17 000€ 2 700m Le Croise Laroche Fire Bird 1'17"9 Attelé
02/12/18 9 Trot 85 000€ 2 850m Vincennes Diego du Houlet 1'14"9 Attelé lire

N'a joué aucun rôle utile.

02/12/18 8 Trot 85 000€ 2 850m Vincennes Eros In Love 1'15"0 Attelé lire

Un des animateurs, a nettement faibli dans le tournant final.

03/12/18 D Trot 16 000€ 2 700m Le Croise Laroche Daisy de la Folie Attelé
03/12/18 9 Trot 19 000€ 2 850m Le Croise Laroche Ethano de Bouteau 1'17"4 Attelé
03/12/18 8 Trot 14 000€ 2 700m Le Croise Laroche Falco d'Alci 1'18"8 Attelé
03/12/18 7 Trot 15 000€ 2 700m Le Croise Laroche Filae des Salines 1'18"7 Attelé
07/12/18 3 Trot 19 000€ 2 800m Chartres Flamme Mencourt 1'19"7 Attelé
07/12/18 D Trot 19 000€ 2 800m Chartres Elisee du Pont Attelé
09/12/18 D Trot 13 000€ 2 850m Mauquenchy Fantasia Jet Attelé
09/12/18 8 Trot 13 000€ 2 850m Mauquenchy Farca Sly 1'20"3 Attelé
11/12/18 4 Trot 19 000€ 2 750m Cabourg Felinara 1'17"3 Attelé
11/12/18 4 Trot 32 000€ 2 775m Cabourg Diego du Houlet 1'14"7 Attelé
12/12/18 7 Trot 40 000€ 2 700m Vincennes Geisha d'Arbaz 1'18"4 Attelé lire

N'a été qu'une simple figurante au sein du peloton.

14/12/18 8 Trot 29 000€ 2 700m Vincennes Ethano de Bouteau 1'16"8 Attelé lire

Rapidement bien placé, a nettement faibli dans la phase finale.

16/12/18 2 Trot 21 000€ 2 750m Cabourg Emile de Jal 1'16"3 Attelé
16/12/18 2 Trot 19 000€ 2 750m Cabourg For Ever Mencourt 1'17"9 Attelé
18/12/18 D Trot 21 000€ 2 900m Amiens Dryade des Salines Attelé
18/12/18 9 Trot 21 000€ 2 925m Amiens Dollar de l'Iton 1'17"7 Attelé
20/12/18 6 Trot 21 000€ 2 750m Cabourg Flashback Syga 1'17"4 Attelé lire

Longtemps en retrait, a concédé du terrain sur faute au dernier passage en face avant de bien terminer.

21/12/18 6 Trot 34 000€ 2 200m Vincennes Flamme Mencourt 1'17"0 Attelé lire

Une des animatrices, a nettement abdiqué dans la phase finale.

26/12/18 2 Trot 21 000€ 2 750m Cabourg Falco d'Alci 1'20"1 Attelé lire

Un des animateurs, ne s'est incliné que dans les dernières battues.